EW2563 Weather Reports


time (UTC)temp
C
wind
direction
speed
KPH
gust
KPH
rain 1hr
cm
rain 24hr
cm
rain mn
cm
humidity
%
barometer
mb
20260507084518 7 34 0.0 3.2 0.00 0.64 0.00 75 1010.9
20260507083021 7 54 1.6 4.8 0.00 0.64 0.00 77 1010.8
20260507081536 7 352 0.0 1.6 0.00 0.64 0.00 76 1010.7
20260507080045 7 264 0.0 3.2 0.00 0.64 0.00 77 1010.8
20260507074549 7 250 0.0 1.6 0.00 0.64 0.00 82 1010.6
20260507073059 7 266 0.0 1.6 0.00 0.64 0.00 81 1010.6
20260507071554 7 285 0.0 3.2 0.00 0.64 0.00 81 1010.7
20260507070100 7 257 0.0 1.6 0.00 0.64 0.00 80 1010.6
20260507064557 7 17 0.0 1.6 0.00 0.64 0.00 80 1010.6
20260507063100 8 290 0.0 1.6 0.00 0.64 0.00 78 1010.9
20260507061602 8 290 0.0 1.6 0.00 0.64 0.00 76 1010.9
20260507060100 9 284 0.0 3.2 0.00 0.64 0.00 74 1010.8
20260507054602 9 254 0.0 3.2 0.00 0.64 0.00 73 1010.8
20260507053003 10 329 3.2 11.3 0.00 0.64 0.00 74 1010.5
20260507051512 9 282 1.6 6.4 0.00 0.64 0.00 81 1010.5
20260507050017 9 262 0.0 4.8 0.00 0.64 0.00 84 1010.5
20260507044518 9 283 3.2 9.7 0.00 0.64 0.00 86 1010.2
20260507043026 9 269 0.0 1.6 0.00 0.64 0.00 88 1010.1
20260507041545 9 242 0.0 4.8 0.00 0.64 0.00 88 1010.1
20260507040048 9 266 0.0 1.6 0.00 0.64 0.00 89 1010.1
20260507034555 9 243 0.0 3.2 0.00 0.64 0.64 88 1010.1
20260507033002 10 275 0.0 3.2 0.00 0.64 0.64 85 1010.2
20260507031507 9 248 0.0 3.2 0.00 0.64 0.64 89 1010.3
20260507030013 9 262 0.0 1.6 0.00 0.64 0.64 88 1010.0
20260507024503 9 304 0.0 0.0 0.00 0.64 0.64 86 1009.8
20260507023004 10 338 0.0 0.0 0.00 0.64 0.64 85 1009.8
20260507021502 10 337 0.0 0.0 0.00 0.64 0.64 84 1010.2
20260507020005 10 30 0.0 0.0 0.00 0.64 0.64 83 1010.5
20260507014517 10 30 0.0 1.6 0.00 0.64 0.64 83 1010.4
20260507013022 10 18 1.6 6.4 0.00 0.64 0.64 83 1010.2
20260507011527 11 250 0.0 0.0 0.00 0.64 0.64 82 1010.6
20260507010026 11 284 0.0 3.2 0.00 0.64 0.64 82 1010.3
20260507004542 11 217 0.0 3.2 0.00 0.64 0.64 82 1010.1
20260507003036 11 268 0.0 4.8 0.00 0.64 0.64 82 1009.6
20260507001547 11 356 3.2 17.7 0.00 0.64 0.64 82 1009.4
20260507000049 11 28 1.6 9.7 0.00 0.64 0.64 83 1008.9
20260506234509 11 307 1.6 14.5 0.00 0.64 0.64 82 1008.7
20260506233012 11 81 1.6 4.8 0.00 0.64 0.64 84 1008.4
20260506231528 11 83 0.0 8.0 0.00 0.64 0.64 84 1008.3
20260506230020 11 284 1.6 8.0 0.00 0.64 0.64 85 1008.2
20260506224525 11 288 3.2 12.9 0.00 0.64 0.64 85 1007.8
20260506223037 12 307 3.2 11.3 0.00 0.64 0.64 85 1007.9
20260506221531 12 32 1.6 14.5 0.00 0.64 0.64 85 1007.5
20260506220033 12 53 1.6 12.9 0.00 0.64 0.64 87 1007.4
20260506214544 12 6 4.8 9.7 0.03 0.64 0.64 87 1006.9
20260506213100 12 281 1.6 9.7 0.03 0.64 0.64 86 1006.5
20260506211606 13 326 0.0 12.9 0.03 0.64 0.64 88 1006.0
20260506204600 16 353 6.4 17.7 0.00 0.61 0.61 83 1005.4
20260506203105 17 262 3.2 16.1 0.00 0.61 0.61 82 1004.8
20260506201610 17 281 3.2 11.3 0.00 0.61 0.61 82 1004.7
20260506200103 17 274 4.8 9.7 0.00 0.61 0.61 85 1004.5
20260506194628 16 243 1.6 6.4 0.00 0.61 0.61 87 1004.6
20260506193004 16 243 1.6 6.4 0.00 0.61 0.61 88 1004.8
20260506191504 16 138 0.0 6.4 0.00 0.61 0.61 89 1004.6
20260506190014 16 195 1.6 6.4 0.00 0.61 0.61 89 1004.6
20260506184518 16 147 0.0 4.8 0.00 0.61 0.61 89 1004.7
20260506183029 16 157 1.6 4.8 0.00 0.61 0.61 89 1004.6
20260506181520 16 193 3.2 9.7 0.00 0.61 0.61 89 1004.7
20260506180036 16 138 1.6 11.3 0.00 0.61 0.61 91 1004.8
20260506174541 15 134 3.2 11.3 0.00 0.61 0.61 91 1004.8
20260506173043 15 219 4.8 9.7 0.00 0.61 0.61 92 1004.7
20260506171552 15 173 4.8 9.7 0.00 0.61 0.61 92 1004.9
20260506170108 15 157 3.2 9.7 0.00 0.61 0.61 92 1005.0
20260506164553 15 149 0.0 4.8 0.00 0.61 0.61 92 1005.1
20260506163111 14 160 0.0 3.2 0.00 0.61 0.61 93 1005.2
20260506161601 14 105 0.0 9.7 0.00 0.61 0.61 93 1005.1
20260506160002 14 163 1.6 6.4 0.00 0.61 0.61 93 1005.4
20260506154503 14 146 3.2 6.4 0.05 0.61 0.61 93 1005.4
20260506153012 14 192 0.0 6.4 0.08 0.61 0.61 93 1005.2
20260506151511 14 94 0.0 3.2 0.08 0.61 0.61 94 1005.0
20260506150011 13 176 1.6 6.4 0.10 0.61 0.61 94 1005.1
20260506144607 13 139 1.6 6.4 0.08 0.56 0.56 93 1005.2
20260506143109 13 162 1.6 4.8 0.05 0.53 0.53 93 1005.2
20260506141600 13 130 0.0 4.8 0.08 0.53 0.53 93 1005.3
20260506140006 13 167 1.6 6.4 0.08 0.51 0.51 93 1005.1
20260506134518 13 155 3.2 8.0 0.10 0.48 0.48 94 1005.3
20260506133016 13 187 1.6 11.3 0.15 0.48 0.48 94 1005.3
20260506131524 13 94 0.0 4.8 0.15 0.46 0.46 94 1005.4
20260506130028 13 64 0.0 1.6 0.18 0.43 0.43 94 1005.2
20260506124530 13 148 0.0 3.2 0.13 0.43 0.38 94 1005.4
20260506123033 13 154 0.0 3.2 0.10 0.38 0.33 94 1005.9
20260506121539 13 92 0.0 0.0 0.08 0.36 0.30 94 1006.0
20260506120047 13 91 0.0 0.0 0.05 0.30 0.25 94 1005.9
20260506114550 13 91 0.0 0.0 0.08 0.30 0.25 93 1005.4
20260506113051 13 94 0.0 0.0 0.08 0.28 0.23 93 1005.4
20260506111552 13 94 0.0 1.6 0.10 0.28 0.23 93 1005.4
20260506110055 13 94 0.0 1.6 0.10 0.25 0.20 93 1005.2
20260506104602 13 94 0.0 1.6 0.10 0.23 0.18 93 1005.1
20260506103007 13 94 0.0 0.0 0.10 0.20 0.15 93 1005.2
20260506101503 13 94 0.0 0.0 0.08 0.18 0.13 93 1005.2
20260506100009 13 94 0.0 1.6 0.08 0.15 0.10 92 1005.2
20260506094509 13 93 0.0 1.6 0.05 0.15 0.08 92 1005.1
20260506093010 13 93 0.0 1.6 0.05 0.13 0.05 91 1004.9
20260506091509 13 94 0.0 3.2 0.05 0.13 0.05 90 1004.9
20260506090005 13 264 1.6 3.2 0.03 0.10 0.03 88 1004.8